TimeEST,TemperatureF,Dew PointF,Humidity,Sea Level PressureIn,VisibilityMPH,Wind Direction,Wind SpeedMPH,Gust SpeedMPH,PrecipitationIn,Events,Conditions,WindDirDegrees,DateUTC
12:15 AM,46.4,35.6,66,29.79,10.0,West,25.3,34.5,N/A,,Clear,280,2013-03-06 05:15:00
12:35 AM,44.6,35.6,71,29.79,10.0,West,26.5,36.8,N/A,,Clear,270,2013-03-06 05:35:00
12:55 AM,44.6,33.8,66,29.80,10.0,West,20.7,32.2,N/A,,Clear,260,2013-03-06 05:55:00
1:15 AM,42.8,33.8,70,29.80,10.0,West,19.6,28.8,N/A,,Scattered Clouds,260,2013-03-06 06:15:00
1:35 AM,44.6,33.8,66,29.81,10.0,West,18.4,33.4,N/A,,Mostly Cloudy,270,2013-03-06 06:35:00
1:55 AM,42.8,32.0,66,29.83,10.0,West,23.0,40.3,N/A,,Scattered Clouds,270,2013-03-06 06:55:00
2:15 AM,41.0,30.2,65,29.83,10.0,West,19.6,39.1,N/A,,Clear,270,2013-03-06 07:15:00
2:35 AM,41.0,30.2,65,29.83,10.0,West,19.6,34.5,N/A,,Clear,280,2013-03-06 07:35:00
2:55 AM,41.0,28.4,61,29.83,10.0,West,18.4,33.4,N/A,,Clear,260,2013-03-06 07:55:00
3:15 AM,41.0,28.4,61,29.83,10.0,West,21.9,36.8,N/A,,Clear,270,2013-03-06 08:15:00
3:35 AM,41.0,28.4,61,29.83,10.0,West,15.0,24.2,N/A,,Clear,270,2013-03-06 08:35:00
3:55 AM,41.0,28.4,61,29.83,10.0,West,15.0,29.9,N/A,,Scattered Clouds,270,2013-03-06 08:55:00
4:15 AM,39.2,28.4,65,29.83,10.0,West,11.5,25.3,N/A,,Scattered Clouds,270,2013-03-06 09:15:00
4:35 AM,39.2,28.4,65,29.83,10.0,West,13.8,28.8,N/A,,Clear,260,2013-03-06 09:35:00
4:55 AM,39.2,28.4,65,29.83,10.0,West,15.0,20.7,N/A,,Clear,260,2013-03-06 09:55:00
5:15 AM,39.2,28.4,65,29.83,10.0,West,19.6,26.5,N/A,,Clear,270,2013-03-06 10:15:00
5:35 AM,37.4,28.4,70,29.83,10.0,West,21.9,29.9,N/A,,Clear,270,2013-03-06 10:35:00
5:55 AM,37.4,24.8,60,29.84,10.0,West,12.7,29.9,N/A,,Scattered Clouds,270,2013-03-06 10:55:00
6:15 AM,37.4,26.6,65,29.87,10.0,West,23.0,32.2,N/A,,Mostly Cloudy,270,2013-03-06 11:15:00
6:35 AM,37.4,26.6,65,29.88,10.0,West,19.6,34.5,N/A,,Mostly Cloudy,270,2013-03-06 11:35:00
6:55 AM,35.6,26.6,70,29.88,10.0,West,18.4,31.1,N/A,,Scattered Clouds,280,2013-03-06 11:55:00
7:15 AM,35.6,26.6,70,29.88,10.0,West,20.7,25.3,N/A,,Scattered Clouds,280,2013-03-06 12:15:00
7:35 AM,35.6,24.8,65,29.90,10.0,WNW,17.3,31.1,N/A,,Clear,290,2013-03-06 12:35:00
7:55 AM,37.4,23.0,56,29.91,10.0,West,21.9,29.9,N/A,,Clear,270,2013-03-06 12:55:00
8:15 AM,37.4,24.8,60,29.92,10.0,West,18.4,29.9,N/A,,Clear,280,2013-03-06 13:15:00
8:35 AM,37.4,24.8,60,29.93,10.0,West,25.3,31.1,N/A,,Clear,280,2013-03-06 13:35:00
8:55 AM,37.4,26.6,65,29.93,10.0,West,15.0,33.4,N/A,,Clear,280,2013-03-06 13:55:00
9:15 AM,39.2,26.6,61,29.94,10.0,West,24.2,35.7,N/A,,Clear,280,2013-03-06 14:15:00
9:35 AM,41.0,26.6,57,29.95,10.0,West,18.4,34.5,N/A,,Clear,280,2013-03-06 14:35:00
9:55 AM,41.0,26.6,57,29.95,10.0,WNW,18.4,28.8,N/A,,Clear,290,2013-03-06 14:55:00
10:15 AM,42.8,26.6,53,29.96,10.0,West,20.7,28.8,N/A,,Clear,280,2013-03-06 15:15:00
10:35 AM,42.8,26.6,53,29.96,10.0,West,23.0,28.8,N/A,,Scattered Clouds,270,2013-03-06 15:35:00
10:55 AM,42.8,26.6,53,29.96,10.0,West,21.9,34.5,N/A,,Mostly Cloudy,280,2013-03-06 15:55:00
11:15 AM,42.8,26.6,53,29.97,10.0,WNW,19.6,33.4,N/A,,Scattered Clouds,290,2013-03-06 16:15:00
11:35 AM,44.6,26.6,49,29.97,10.0,West,21.9,31.1,N/A,,Mostly Cloudy,280,2013-03-06 16:35:00
12:15 PM,44.6,26.6,49,29.97,10.0,West,21.9,28.8,N/A,,Scattered Clouds,280,2013-03-06 17:15:00
12:35 PM,44.6,26.6,49,29.96,10.0,WNW,16.1,31.1,N/A,,Scattered Clouds,300,2013-03-06 17:35:00
12:55 PM,46.4,28.4,50,29.96,10.0,WNW,18.4,28.8,N/A,,Scattered Clouds,290,2013-03-06 17:55:00
1:15 PM,46.4,28.4,50,29.96,10.0,West,17.3,26.5,N/A,,Mostly Cloudy,270,2013-03-06 18:15:00
1:35 PM,48.2,28.4,46,29.95,10.0,West,18.4,32.2,N/A,,Mostly Cloudy,270,2013-03-06 18:35:00
2:15 PM,50.0,28.4,43,29.94,10.0,West,24.2,28.8,N/A,,Mostly Cloudy,280,2013-03-06 19:15:00
2:35 PM,50.0,28.4,43,29.94,10.0,WNW,20.7,32.2,N/A,,Mostly Cloudy,290,2013-03-06 19:35:00
2:55 PM,50.0,28.4,43,29.94,10.0,West,17.3,26.5,N/A,,Mostly Cloudy,280,2013-03-06 19:55:00
3:15 PM,50.0,30.2,47,29.95,10.0,WNW,15.0,27.6,N/A,,Scattered Clouds,290,2013-03-06 20:15:00
3:35 PM,48.2,28.4,46,29.97,10.0,WNW,16.1,28.8,N/A,,Scattered Clouds,300,2013-03-06 20:35:00
3:55 PM,50.0,28.4,43,29.98,10.0,WNW,20.7,28.8,N/A,,Clear,290,2013-03-06 20:55:00
4:15 PM,50.0,30.2,47,29.98,10.0,NW,18.4,27.6,N/A,,Clear,310,2013-03-06 21:15:00
4:35 PM,50.0,30.2,47,29.98,10.0,WNW,15.0,21.9,N/A,,Clear,300,2013-03-06 21:35:00
4:55 PM,50.0,30.2,47,30.00,10.0,WNW,17.3,25.3,N/A,,Clear,300,2013-03-06 21:55:00
5:15 PM,50.0,30.2,47,30.00,10.0,WNW,17.3,23.0,N/A,,Clear,290,2013-03-06 22:15:00
5:35 PM,46.4,30.2,53,30.01,10.0,WNW,15.0,23.0,N/A,,Clear,300,2013-03-06 22:35:00
5:55 PM,46.4,30.2,53,30.03,10.0,WNW,16.1,26.5,N/A,,Clear,300,2013-03-06 22:55:00
6:15 PM,44.6,30.2,57,30.04,10.0,WNW,13.8,21.9,N/A,,Clear,300,2013-03-06 23:15:00
6:35 PM,44.6,30.2,57,30.05,10.0,WNW,11.5,16.1,N/A,,Clear,290,2013-03-06 23:35:00
6:55 PM,42.8,30.2,61,30.07,10.0,West,8.1,-,N/A,,Clear,280,2013-03-06 23:55:00
7:15 PM,42.8,30.2,61,30.08,10.0,WNW,10.4,-,N/A,,Clear,300,2013-03-07 00:15:00
7:35 PM,41.0,30.2,65,30.09,10.0,WNW,8.1,-,N/A,,Clear,300,2013-03-07 00:35:00
7:55 PM,41.0,30.2,65,30.10,10.0,WNW,8.1,-,N/A,,Clear,300,2013-03-07 00:55:00
8:15 PM,41.0,30.2,65,30.10,10.0,WNW,11.5,17.3,N/A,,Clear,300,2013-03-07 01:15:00
8:35 PM,41.0,30.2,65,30.10,10.0,NW,6.9,-,N/A,,Clear,310,2013-03-07 01:35:00
8:55 PM,39.2,30.2,70,30.10,10.0,WNW,6.9,-,N/A,,Clear,300,2013-03-07 01:55:00
9:15 PM,37.4,30.2,75,30.11,10.0,WNW,5.8,-,N/A,,Clear,300,2013-03-07 02:15:00
9:35 PM,37.4,30.2,75,30.11,10.0,WNW,4.6,-,N/A,,Clear,290,2013-03-07 02:35:00
10:15 PM,35.6,30.2,81,30.13,10.0,WNW,4.6,-,N/A,,Clear,300,2013-03-07 03:15:00
10:35 PM,35.6,30.2,81,30.13,10.0,WNW,5.8,-,N/A,,Clear,300,2013-03-07 03:35:00
10:55 PM,35.6,30.2,81,30.14,10.0,NW,3.5,-,N/A,,Clear,310,2013-03-07 03:55:00
11:15 PM,33.8,30.2,87,30.14,10.0,WNW,5.8,-,N/A,,Clear,300,2013-03-07 04:15:00
11:35 PM,33.8,30.2,87,30.15,10.0,WNW,4.6,-,N/A,,Clear,300,2013-03-07 04:35:00
11:55 PM,33.8,30.2,87,30.16,10.0,NW,4.6,-,N/A,,Clear,320,2013-03-07 04:55:00